| time (UTC) | temp F | wind direction | speed knots | gust knots | rain 1hr in | rain 24hr in | rain mn in | humidity % | barometer mb |
| 20260503180202 | 59 | 245 | 1.7 | 5.2 | 0.00 | 0.01 | 0.01 | 81 | 1015.0 |
| 20260503175659 | 59 | 277 | 0.0 | 3.5 | 0.00 | 0.01 | 0.01 | 84 | 1015.2 |
| 20260503175156 | 58 | 310 | 1.7 | 7.0 | 0.00 | 0.01 | 0.01 | 82 | 1015.0 |
| 20260503174652 | 58 | 179 | 0.0 | 4.3 | 0.00 | 0.01 | 0.01 | 82 | 1015.1 |
| 20260503174149 | 58 | 212 | 0.9 | 3.5 | 0.00 | 0.01 | 0.01 | 81 | 1015.2 |
| 20260503173639 | 59 | 199 | 2.6 | 5.2 | 0.00 | 0.01 | 0.01 | 83 | 1015.1 |
| 20260503173135 | 60 | 317 | 1.7 | 2.6 | 0.00 | 0.01 | 0.01 | 83 | 1015.0 |
| 20260503172632 | 60 | 208 | 3.5 | 4.3 | 0.00 | 0.01 | 0.01 | 82 | 1015.1 |
| 20260503172130 | 60 | 287 | 0.0 | 3.5 | 0.00 | 0.01 | 0.01 | 81 | 1015.2 |
| 20260503171626 | 60 | 281 | 0.9 | 2.6 | 0.00 | 0.01 | 0.01 | 83 | 1015.1 |
| 20260503171123 | 59 | 320 | 0.0 | 3.5 | 0.00 | 0.01 | 0.01 | 85 | 1014.9 |
| 20260503170621 | 59 | 200 | 2.6 | 3.5 | 0.00 | 0.01 | 0.01 | 86 | 1015.0 |
| 20260503170117 | 59 | 214 | 0.0 | 2.6 | 0.00 | 0.01 | 0.01 | 89 | 1014.7 |
| 20260503151012 | 54 | 199 | 0.9 | 2.6 | 0.00 | 0.00 | 0.00 | 98 | 1014.4 |
| 20260503150509 | 54 | 22 | 0.0 | 1.7 | 0.02 | 0.00 | 0.00 | 98 | 1014.3 |
| 20260503131402 | 53 | 210 | 2.6 | 3.5 | 0.00 | 0.00 | 0.00 | 95 | 1013.4 |
| 20260503130859 | 53 | 221 | 1.7 | 3.5 | 0.00 | 0.00 | 0.00 | 95 | 1013.2 |
| 20260503130356 | 53 | 218 | 0.9 | 3.5 | 0.00 | 0.00 | 0.00 | 95 | 1013.1 |
| 20260503110750 | 53 | 205 | 0.0 | 2.6 | 0.00 | 0.00 | 0.00 | 95 | 1012.8 |
| 20260503110247 | 53 | 307 | 0.9 | 2.6 | 0.00 | 0.00 | 0.00 | 95 | 1012.9 |
| 20260503100213 | 54 | 98 | 0.0 | 5.2 | 0.00 | 0.00 | 0.00 | 93 | 1012.8 |
| 20260503090137 | 55 | 220 | 1.7 | 6.1 | 0.00 | 0.00 | 0.00 | 90 | 1013.0 |
| 20260503081613 | 55 | 216 | 3.5 | 4.3 | 0.00 | 0.00 | 0.00 | 89 | 1013.1 |
| 20260503081110 | 55 | 222 | 1.7 | 4.3 | 0.00 | 0.00 | 0.00 | 89 | 1013.3 |
| 20260503080606 | 55 | 232 | 1.7 | 4.3 | 0.00 | 0.00 | 0.00 | 89 | 1013.1 |
| 20260503080103 | 55 | 212 | 0.9 | 5.2 | 0.00 | 0.00 | 0.00 | 88 | 1013.2 |
| 20260503072540 | 55 | 208 | 1.7 | 7.0 | 0.00 | 0.00 | 0.00 | 87 | 1013.4 |
| 20260503072037 | 55 | 204 | 2.6 | 7.0 | 0.00 | 0.00 | 0.00 | 87 | 1013.1 |
| 20260503071534 | 55 | 214 | 3.5 | 5.2 | 0.00 | 0.00 | 0.00 | 87 | 1013.4 |
| 20260503071031 | 55 | 196 | 1.7 | 6.1 | 0.00 | 0.00 | 0.00 | 87 | 1013.3 |
| 20260503070527 | 55 | 227 | 1.7 | 4.3 | 0.00 | 0.00 | 0.00 | 87 | 1013.1 |
| 20260503054945 | 55 | 187 | 1.7 | 4.3 | 0.00 | 0.00 | 0.00 | 87 | 1013.9 |
| 20260503054441 | 55 | 226 | 1.7 | 4.3 | 0.00 | 0.00 | 0.00 | 87 | 1013.6 |
| 20260503053939 | 55 | 187 | 0.9 | 2.6 | 0.00 | 0.00 | 0.00 | 87 | 1013.7 |
| 20260503053437 | 55 | 242 | 0.9 | 6.1 | 0.00 | 0.00 | 0.00 | 87 | 1013.6 |
| 20260503052933 | 55 | 224 | 1.7 | 4.3 | 0.00 | 0.00 | 0.00 | 87 | 1013.5 |
| 20260503052431 | 55 | 213 | 1.7 | 4.3 | 0.00 | 0.00 | 0.00 | 86 | 1013.9 |
| 20260503051927 | 55 | 271 | 0.9 | 4.3 | 0.00 | 0.00 | 0.00 | 86 | 1013.7 |
| 20260503051423 | 55 | 220 | 2.6 | 4.3 | 0.00 | 0.00 | 0.00 | 86 | 1014.0 |
| 20260503050921 | 55 | 251 | 0.0 | 3.5 | 0.00 | 0.00 | 0.00 | 86 | 1013.9 |
| 20260503050416 | 55 | 264 | 1.7 | 5.2 | 0.00 | 0.00 | 0.00 | 86 | 1013.9 |
| 20260503045914 | 55 | 215 | 0.9 | 6.1 | 0.00 | 0.00 | 0.00 | 86 | 1013.8 |
| 20260503045411 | 55 | 217 | 1.7 | 2.6 | 0.00 | 0.00 | 0.00 | 85 | 1014.5 |
| 20260503044908 | 55 | 248 | 1.7 | 3.5 | 0.00 | 0.00 | 0.00 | 85 | 1013.9 |
| 20260503044405 | 55 | 199 | 0.9 | 2.6 | 0.00 | 0.00 | 0.00 | 86 | 1014.1 |
| 20260503043902 | 55 | 234 | 0.0 | 4.3 | 0.00 | 0.00 | 0.00 | 86 | 1014.0 |
| 20260503043359 | 55 | 236 | 2.6 | 5.2 | 0.00 | 0.00 | 0.00 | 86 | 1014.1 |
| 20260503042855 | 55 | 263 | 0.9 | 7.0 | 0.00 | 0.00 | 0.00 | 86 | 1013.9 |
| 20260503042352 | 55 | 199 | 1.7 | 6.1 | 0.00 | 0.00 | 0.00 | 86 | 1013.9 |
| 20260503041848 | 55 | 22 | 0.0 | 3.5 | 0.00 | 0.00 | 0.00 | 87 | 1014.1 |
| 20260503041345 | 55 | 198 | 1.7 | 4.3 | 0.00 | 0.00 | 0.00 | 87 | 1013.8 |
| 20260503040843 | 55 | 262 | 4.3 | 4.3 | 0.00 | 0.00 | 0.00 | 87 | 1013.8 |
| 20260503040340 | 55 | 236 | 0.9 | 3.5 | 0.00 | 0.00 | 0.00 | 87 | 1013.8 |
| 20260503035836 | 55 | 124 | 0.0 | 7.0 | 0.00 | 0.00 | 0.00 | 87 | 1013.6 |
| 20260503035334 | 55 | 233 | 0.9 | 7.0 | 0.00 | 0.00 | 0.00 | 87 | 1013.4 |
| 20260503034831 | 55 | 235 | 1.7 | 6.1 | 0.00 | 0.00 | 0.00 | 86 | 1013.4 |
| 20260503034329 | 55 | 256 | 1.7 | 3.5 | 0.00 | 0.00 | 0.00 | 86 | 1013.3 |
| 20260503033826 | 55 | 253 | 1.7 | 4.3 | 0.00 | 0.00 | 0.00 | 86 | 1013.4 |
| 20260503033323 | 55 | 135 | 0.0 | 4.3 | 0.00 | 0.00 | 0.00 | 86 | 1013.3 |
| 20260503032821 | 55 | 239 | 1.7 | 6.1 | 0.00 | 0.00 | 0.00 | 86 | 1013.2 |
| 20260503032320 | 55 | 249 | 0.9 | 5.2 | 0.00 | 0.00 | 0.00 | 86 | 1013.1 |
| 20260503031816 | 55 | 201 | 0.0 | 3.5 | 0.00 | 0.00 | 0.00 | 86 | 1013.1 |
| 20260503031314 | 55 | 239 | 2.6 | 7.0 | 0.00 | 0.00 | 0.00 | 86 | 1013.0 |
| 20260503030810 | 55 | 265 | 4.3 | 6.1 | 0.00 | 0.00 | 0.00 | 86 | 1013.0 |
| 20260503030307 | 56 | 251 | 1.7 | 4.3 | 0.00 | 0.00 | 0.00 | 86 | 1013.2 |
| 20260503025803 | 56 | 266 | 0.9 | 4.3 | 0.00 | 0.00 | 0.00 | 86 | 1012.8 |
| 20260503025301 | 56 | 235 | 3.5 | 6.1 | 0.00 | 0.00 | 0.00 | 85 | 1013.1 |
| 20260503024758 | 56 | 209 | 1.7 | 5.2 | 0.00 | 0.00 | 0.00 | 84 | 1013.1 |
| 20260503024255 | 56 | 279 | 2.6 | 5.2 | 0.00 | 0.00 | 0.00 | 84 | 1012.9 |
| 20260503023752 | 56 | 246 | 3.5 | 4.3 | 0.00 | 0.00 | 0.00 | 85 | 1012.9 |
| 20260503023249 | 56 | 230 | 1.7 | 5.2 | 0.00 | 0.00 | 0.00 | 86 | 1012.9 |
| 20260503022745 | 56 | 265 | 2.6 | 5.2 | 0.00 | 0.00 | 0.00 | 86 | 1012.9 |
| 20260503022240 | 56 | 314 | 1.7 | 4.3 | 0.00 | 0.00 | 0.00 | 86 | 1013.0 |
| 20260503021737 | 56 | 317 | 1.7 | 11.3 | 0.00 | 0.00 | 0.00 | 86 | 1013.1 |
| 20260503021233 | 56 | 147 | 1.7 | 4.3 | 0.00 | 0.00 | 0.00 | 86 | 1013.0 |
| 20260503020731 | 56 | 279 | 1.7 | 9.6 | 0.00 | 0.00 | 0.00 | 85 | 1013.1 |
| 20260503020228 | 56 | 300 | 2.6 | 5.2 | 0.00 | 0.00 | 0.00 | 84 | 1013.0 |
| 20260503015725 | 56 | 252 | 1.7 | 6.1 | 0.00 | 0.00 | 0.00 | 85 | 1013.0 |
| 20260503015222 | 57 | 288 | 2.6 | 4.3 | 0.00 | 0.00 | 0.00 | 85 | 1013.3 |
| 20260503014717 | 57 | 251 | 1.7 | 6.1 | 0.00 | 0.00 | 0.00 | 84 | 1013.1 |
| 20260503014216 | 57 | 199 | 2.6 | 7.0 | 0.00 | 0.00 | 0.00 | 85 | 1013.2 |
| 20260503013712 | 57 | 259 | 4.3 | 7.8 | 0.00 | 0.00 | 0.00 | 84 | 1013.3 |
| 20260503013210 | 57 | 277 | 1.7 | 4.3 | 0.00 | 0.00 | 0.00 | 85 | 1013.2 |
| 20260503012707 | 57 | 282 | 0.9 | 6.1 | 0.00 | 0.00 | 0.00 | 85 | 1013.2 |
| 20260503012204 | 57 | 248 | 4.3 | 7.0 | 0.00 | 0.00 | 0.00 | 83 | 1013.1 |
| 20260503011700 | 58 | 324 | 0.0 | 6.1 | 0.00 | 0.00 | 0.00 | 83 | 1013.1 |
| 20260503011158 | 58 | 0 | 1.7 | 7.8 | 0.00 | 0.00 | 0.00 | 83 | 1013.1 |
| 20260503010654 | 58 | 355 | 1.7 | 7.0 | 0.00 | 0.00 | 0.00 | 82 | 1013.1 |
| 20260503010151 | 58 | 44 | 1.7 | 5.2 | 0.00 | 0.00 | 0.00 | 82 | 1013.2 |
| 20260503005648 | 58 | 319 | 1.7 | 6.1 | 0.00 | 0.00 | 0.00 | 81 | 1013.1 |
| 20260503005145 | 58 | 267 | 1.7 | 7.8 | 0.00 | 0.00 | 0.00 | 82 | 1012.8 |
| 20260503004641 | 59 | 325 | 1.7 | 7.8 | 0.00 | 0.00 | 0.00 | 82 | 1013.2 |
| 20260503004140 | 59 | 290 | 3.5 | 7.8 | 0.00 | 0.00 | 0.00 | 81 | 1012.9 |
| 20260503003637 | 58 | 246 | 1.7 | 8.7 | 0.00 | 0.00 | 0.00 | 82 | 1012.9 |
| 20260503003134 | 59 | 85 | 0.0 | 5.2 | 0.00 | 0.00 | 0.00 | 82 | 1013.2 |
| 20260503002631 | 59 | 225 | 0.0 | 9.6 | 0.00 | 0.00 | 0.00 | 83 | 1013.0 |
| 20260503002128 | 59 | 318 | 1.7 | 5.2 | 0.00 | 0.00 | 0.00 | 82 | 1013.1 |
| 20260503001623 | 59 | 268 | 0.0 | 6.1 | 0.00 | 0.00 | 0.00 | 82 | 1013.3 |
| 20260503001121 | 59 | 284 | 2.6 | 7.8 | 0.00 | 0.00 | 0.00 | 82 | 1013.3 |
| 20260503000618 | 59 | 287 | 1.7 | 7.8 | 0.00 | 0.00 | 0.00 | 82 | 1013.3 |
| 20260503000115 | 60 | 232 | 2.6 | 5.2 | 0.00 | 0.00 | 0.00 | 81 | 1013.5 |
| 20260502235612 | 60 | 182 | 1.7 | 7.0 | 0.00 | 0.00 | 0.00 | 81 | 1013.3 |
| 20260502235110 | 60 | 325 | 2.6 | 8.7 | 0.00 | 0.00 | 0.00 | 81 | 1013.4 |
| 20260502234605 | 60 | 65 | 0.0 | 6.1 | 0.00 | 0.00 | 0.00 | 80 | 1013.3 |
| 20260502234103 | 60 | 331 | 2.6 | 6.1 | 0.00 | 0.00 | 0.00 | 79 | 1013.4 |
| 20260502233558 | 60 | 264 | 2.6 | 7.0 | 0.00 | 0.00 | 0.00 | 80 | 1013.3 |
| 20260502233055 | 60 | 297 | 0.9 | 6.1 | 0.00 | 0.00 | 0.00 | 79 | 1013.1 |
| 20260502232551 | 60 | 287 | 2.6 | 6.1 | 0.00 | 0.00 | 0.00 | 78 | 1013.4 |
| 20260502232049 | 61 | 249 | 2.6 | 7.8 | 0.00 | 0.00 | 0.00 | 77 | 1013.4 |
| 20260502231545 | 62 | 281 | 3.5 | 7.8 | 0.00 | 0.00 | 0.00 | 76 | 1013.6 |
| 20260502231043 | 62 | 13 | 2.6 | 6.1 | 0.00 | 0.00 | 0.00 | 76 | 1013.4 |
| 20260502230541 | 62 | 258 | 3.5 | 7.0 | 0.00 | 0.00 | 0.00 | 77 | 1013.4 |
| 20260502230040 | 62 | 3 | 0.9 | 7.0 | 0.00 | 0.00 | 0.00 | 77 | 1013.5 |
| 20260502225535 | 62 | 160 | 1.7 | 9.6 | 0.00 | 0.00 | 0.00 | 77 | 1013.7 |
| 20260502225032 | 61 | 5 | 0.0 | 5.2 | 0.00 | 0.00 | 0.00 | 79 | 1013.8 |
| 20260502224528 | 61 | 300 | 3.5 | 9.6 | 0.00 | 0.00 | 0.00 | 78 | 1013.9 |
| 20260502224025 | 61 | 337 | 4.3 | 7.8 | 0.00 | 0.00 | 0.00 | 79 | 1014.0 |
| 20260502223523 | 61 | 61 | 1.7 | 7.8 | 0.00 | 0.00 | 0.00 | 79 | 1014.2 |
| 20260502223021 | 62 | 247 | 3.5 | 11.3 | 0.00 | 0.00 | 0.00 | 78 | 1014.3 |
| 20260502222518 | 63 | 308 | 3.5 | 6.1 | 0.00 | 0.00 | 0.00 | 76 | 1014.2 |
| 20260502222014 | 63 | 209 | 1.7 | 7.8 | 0.00 | 0.00 | 0.00 | 77 | 1014.1 |
| 20260502221510 | 64 | 250 | 2.6 | 6.1 | 0.00 | 0.00 | 0.00 | 75 | 1014.2 |
| 20260502221008 | 63 | 278 | 3.5 | 9.6 | 0.00 | 0.00 | 0.00 | 76 | 1014.4 |
| 20260502220503 | 63 | 303 | 2.6 | 7.8 | 0.00 | 0.00 | 0.00 | 77 | 1014.4 |
| 20260502220000 | 64 | 298 | 1.7 | 6.1 | 0.00 | 0.00 | 0.00 | 75 | 1014.6 |
| 20260502215457 | 64 | 334 | 1.7 | 13.0 | 0.00 | 0.00 | 0.00 | 75 | 1014.7 |
| 20260502214954 | 65 | 135 | 0.0 | 6.1 | 0.00 | 0.00 | 0.00 | 74 | 1014.7 |
| 20260502214451 | 65 | 287 | 2.6 | 6.1 | 0.00 | 0.00 | 0.00 | 74 | 1014.6 |
| 20260502213948 | 64 | 103 | 0.0 | 8.7 | 0.00 | 0.00 | 0.00 | 76 | 1014.8 |
| 20260502213445 | 65 | 319 | 2.6 | 7.8 | 0.00 | 0.00 | 0.00 | 73 | 1014.7 |
| 20260502212943 | 63 | 315 | 0.9 | 7.8 | 0.00 | 0.00 | 0.00 | 76 | 1014.8 |
| 20260502212442 | 63 | 179 | 0.9 | 10.4 | 0.00 | 0.00 | 0.00 | 74 | 1014.8 |
| 20260502211939 | 64 | 133 | 0.0 | 9.6 | 0.00 | 0.00 | 0.00 | 73 | 1014.9 |
| 20260502211434 | 64 | 314 | 1.7 | 7.8 | 0.00 | 0.00 | 0.00 | 73 | 1015.0 |
| 20260502210932 | 64 | 327 | 3.5 | 7.0 | 0.00 | 0.00 | 0.00 | 73 | 1014.7 |
| 20260502210428 | 64 | 271 | 1.7 | 6.1 | 0.00 | 0.00 | 0.00 | 74 | 1015.0 |
| 20260502205926 | 64 | 298 | 2.6 | 7.8 | 0.00 | 0.00 | 0.00 | 73 | 1015.0 |
| 20260502205422 | 64 | 331 | 2.6 | 7.8 | 0.00 | 0.00 | 0.00 | 73 | 1015.0 |
| 20260502204919 | 64 | 175 | 0.9 | 7.0 | 0.00 | 0.00 | 0.00 | 75 | 1015.2 |
| 20260502204416 | 63 | 214 | 0.9 | 4.3 | 0.00 | 0.00 | 0.00 | 75 | 1015.3 |
| 20260502203914 | 62 | 280 | 4.3 | 10.4 | 0.00 | 0.00 | 0.00 | 76 | 1015.1 |
| 20260502203411 | 63 | 240 | 3.5 | 7.8 | 0.00 | 0.00 | 0.00 | 75 | 1015.3 |
| 20260502202907 | 62 | 259 | 2.6 | 8.7 | 0.00 | 0.00 | 0.00 | 76 | 1015.3 |
| 20260502202404 | 63 | 186 | 1.7 | 6.1 | 0.00 | 0.00 | 0.00 | 76 | 1015.3 |
| 20260502201902 | 63 | 221 | 0.0 | 6.1 | 0.00 | 0.00 | 0.00 | 75 | 1015.4 |
| 20260502201357 | 64 | 27 | 1.7 | 6.1 | 0.00 | 0.00 | 0.00 | 72 | 1015.5 |
| 20260502200854 | 64 | 288 | 2.6 | 8.7 | 0.00 | 0.00 | 0.00 | 74 | 1015.5 |
| 20260502200350 | 64 | 340 | 4.3 | 7.0 | 0.00 | 0.00 | 0.00 | 73 | 1015.7 |
| 20260502195849 | 64 | 305 | 3.5 | 7.0 | 0.00 | 0.00 | 0.00 | 74 | 1015.8 |
| 20260502195345 | 63 | 295 | 3.5 | 7.8 | 0.00 | 0.00 | 0.00 | 75 | 1016.0 |
| 20260502194841 | 63 | 220 | 2.6 | 8.7 | 0.00 | 0.00 | 0.00 | 76 | 1016.0 |
| 20260502194338 | 64 | 257 | 1.7 | 5.2 | 0.00 | 0.00 | 0.00 | 75 | 1016.0 |
| 20260502193834 | 62 | 64 | 0.0 | 7.8 | 0.00 | 0.00 | 0.00 | 77 | 1015.8 |
| 20260502193332 | 63 | 258 | 2.6 | 7.0 | 0.00 | 0.00 | 0.00 | 75 | 1016.2 |
| 20260502192827 | 62 | 195 | 0.9 | 4.3 | 0.00 | 0.00 | 0.00 | 76 | 1016.1 |
| 20260502192324 | 61 | 278 | 2.6 | 4.3 | 0.00 | 0.00 | 0.00 | 76 | 1016.4 |
| 20260502191821 | 61 | 183 | 0.0 | 7.0 | 0.00 | 0.00 | 0.00 | 77 | 1016.2 |
| 20260502191320 | 61 | 268 | 2.6 | 5.2 | 0.00 | 0.00 | 0.00 | 77 | 1016.4 |
| 20260502190816 | 61 | 69 | 0.9 | 5.2 | 0.00 | 0.00 | 0.00 | 77 | 1016.1 |
| 20260502190314 | 60 | 165 | 1.7 | 7.0 | 0.00 | 0.00 | 0.00 | 79 | 1016.1 |
| 20260502185809 | 61 | 340 | 1.7 | 5.2 | 0.00 | 0.00 | 0.00 | 77 | 1016.4 |
| 20260502185305 | 60 | 156 | 0.0 | 4.3 | 0.00 | 0.00 | 0.00 | 78 | 1016.1 |
| 20260502184802 | 60 | 197 | 0.9 | 7.0 | 0.00 | 0.00 | 0.00 | 77 | 1016.3 |
| 20260502184257 | 61 | 306 | 0.0 | 6.1 | 0.00 | 0.00 | 0.00 | 78 | 1016.3 |
| 20260502183754 | 61 | 164 | 0.9 | 5.2 | 0.00 | 0.00 | 0.00 | 78 | 1016.4 |
| 20260502183250 | 61 | 308 | 4.3 | 7.8 | 0.00 | 0.00 | 0.00 | 78 | 1016.2 |
| 20260502182746 | 60 | 288 | 2.6 | 6.1 | 0.00 | 0.00 | 0.00 | 79 | 1016.0 |
| 20260502182241 | 60 | 319 | 1.7 | 4.3 | 0.00 | 0.00 | 0.00 | 80 | 1016.3 |
| 20260502181737 | 60 | 208 | 1.7 | 7.0 | 0.00 | 0.00 | 0.00 | 80 | 1016.3 |
| 20260502181232 | 59 | 344 | 0.9 | 4.3 | 0.00 | 0.00 | 0.00 | 80 | 1016.4 |
| 20260502180728 | 59 | 328 | 2.6 | 5.2 | 0.00 | 0.00 | 0.00 | 80 | 1016.4 |